Location: DARK SKY Beskydy - Park tmavé oblohy, www.darkskybeskydy.cz
(49.4926°N, 18.5016°E)
Time: 01:24:54
(UTC+01:00)

Tiangong - Pass Details

Date: 09 December 2022
Orbit: 383 x 386 km, 41.5° (Epoch: 28 January)

Event Time Altitude Azimuth Distance (km) Brightness Sun altitude
Rises 17:21:34 0° 256° (WSW) 2,254 3.7 -14.6°
Reaches altitude 10° 17:24:20 10° 229° (SW) 1,401 1.8 -15.0°
Maximum altitude 17:26:04 14° 196° (SSW) 1,190 0.8 -15.3°
Drops below altitude 10° 17:27:48 10° 162° (SSE) 1,402 0.7 -15.5°
Enters shadow 17:29:06 - 147° (SSE) 1,756 1.0 -15.7°
